Probability
0 0 39 71 74 77 84 84 84 87 90 90 90 87 90 94 90 87 81 74 71 71 68 61 52 45 39 32 23 13 10 3 6 6 3 0 0 0 0 0 0 0 0
0 0 32 68 68 71 74 71 77 87 90 90 90 90 90 90 90 84 77 71 68 55 58 55 48 45 39 26 23 13 6 6 6 6 3 0 0 0 0 0 0 0 0
0 3 29 52 65 68 68 71 74 74 81 87 87 87 87 87 84 81 74 71 58 58 58 48 48 39 32 26 16 10 6 6 0 0 0 0 0 0 0 0 0 0 0
0 6 26 48 52 65 61 61 61 61 68 77 81 81 77 84 77 84 74 68 58 55 52 48 42 32 32 19 10 6 3 3 0 0 0 0 0 0 0 0 0 0 0
0 6 23 45 48 52 61 65 61 58 61 61 74 74 74 71 68 65 68 65 52 52 52 42 35 29 26 16 6 3 3 0 0 0 0 0 0 0 0 0 0 0 0
3 10 23 42 45 48 48 58 61 61 61 61 65 68 61 61 65 58 61 55 52 52 52 39 32 26 19 6 6 3 0 0 0 0 0 0 0 0 0 0 0 0 0
0 10 23 32 45 45 48 52 52 55 58 58 58 55 52 58 55 52 48 42 45 48 45 32 26 26 13 6 6 6 3 0 0 0 0 0 0 0 0 0 0 0 0
0 6 13 29 39 39 42 42 48 52 52 52 58 52 45 45 45 45 39 35 39 42 35 32 23 19 13 6 6 6 0 0 0 0 0 0 0 0 0 0 0 0 0
0 10 10 16 23 32 32 35 42 45 52 52 48 52 42 35 35 32 35 35 35 32 35 29 19 16 13 6 6 6 0 0 0 0 0 0 0 0 0 0 0 0 0
6 10 6 6 16 19 19 23 32 39 39 39 32 23 23 26 29 29 29 23 23 26 19 23 16 10 13 10 6 0 0 0 0 0 0 0 0 0 0 0 0 0 0
3 6 6 6 6 10 10 16 19 13 13 10 13 10 10 6 13 10 3 3 16 13 19 10 6 3 3 3 0 0 0 0 0 0 0 0 0 0 0 0 0 0 0
3 3 0 6 6 6 3 3 6 3 6 3 3 0 3 0 0 0 3 3 3 3 3 3 6 3 0 0 0 0 0 0 0 0 0 0 0 0 0 0 0 0 0
3 3 0 3 6 3 3 3 3 3 3 3 3 0 0 0 0 0 0 0 0 0 0 3 3 0 0 0 0 0 0 0 0 0 0 0 0 0 0 0 0 0 0
3 0 0 0 6 3 3 3 3 3 3 3 0 0 0 0 0 0 0 0 0 0 0 0 0 0 0 0 0 0 0 0 0 0 0 0 0 0 0 0 0 0 0
3 0 0 0 0 3 3 3 3 3 0 0 0 0 0 0 0 0 0 0 0 0 0 0 0 0 0 0 0 0 0 0 0 0 0 0 0 0 0 0 0 0 0
0 0 0 0 0 0 3 3 3 3 0 0 0 0 0 0 0 0 0 0 0 0 0 0 0 0 0 0 0 0 0 0 0 0 0 0 0 0 0 0 0 0 0
0 0 0 0 0 0 0 3 3 3 0 0 0 0 0 0 0 0 0 0 0 0 0 0 0 0 0 0 0 0 0 0 0 0 0 0 0 0 0 0 0 0 0
0 0 0 0 0 0 0 0 3 3 3 0 0 0 0 0 0 0 0 0 0 0 0 0 0 0 0 0 0 0 0 0 0 0 0 0 0 0 0 0 0 0 0
0 0 0 0 0 0 0 0 0 3 3 0 0 0 0 0 0 0 0 0 0 0 0 0 0 0 0 0 0 0 0 0 0 0 0 0 0 0 0 0 0 0 0
0 0 0 0 0 0 0 0 0 0 0 0 0 0 0 0 0 0 0 0 0 0 0 0 0 0 0 0 0 0 0 0 0 0 0 0 0 0 0 0 0 0 0
0 0 0 0 0 0 0 0 0 0 0 0 0 0 0 0 0 0 0 0 0 0 0 0 0 0 0 0 0 0 0 0 0 0 0 0 0 0 0 0 0 0 0
0 0 0 0 0 0 0 0 0 0 0 0 0 0 0 0 0 0 0 0 0 0 0 0 0 0 0 0 0 0 0 0 0 0 0 0 0 0 0 0 0 0 0
0 0 0 0 0 0 0 0 0 0 0 0 0 0 0 0 0 0 0 0 0 0 0 0 0 0 0 0 0 0 0 0 0 0 0 0 0 0 0 0 0 0 0
0 0 0 0 0 0 0 0 0 0 0 0 0 0 0 0 0 0 0 0 0 0 0 0 0 0 0 0 0 0 0 0 0 0 0 0 0 0 0 0 0 0 0
0 0 0 0 0 0 0 0 0 0 0 0 0 0 0 0 0 0 0 0 0 0 0 0 0 0 0 0 0 0 0 0 0 0 0 0 0 0 0 0 0 0 0
0 0 0 0 0 0 0 0 0 0 0 0 0 0 0 0 0 0 0 0 0 0 0 0 0 0 0 0 0 0 0 0 0 0 0 0 0 0 0 0 0 0 0
Height
5838 5839 5840 5841 5842 5844 5846 5847 5848 5850 5851 5852 5853 5854 5855 5856 5857 5858 5859 5861 5862 5862 5863 5864 5865 5865 5866 5866 5867 5867 5867 5867 5867 5867 5867 5867 5866 5866 5865 5864 5864 5863 5862
5834 5835 5837 5838 5839 5840 5842 5843 5845 5846 5847 5848 5850 5851 5852 5853 5854 5855 5857 5858 5859 5860 5861 5861 5862 5863 5864 5864 5865 5865 5866 5866 5866 5866 5865 5865 5865 5864 5863 5863 5862 5861 5860
5830 5831 5832 5834 5835 5836 5837 5839 5840 5842 5843 5845 5846 5847 5848 5850 5851 5852 5853 5855 5856 5857 5858 5859 5860 5860 5861 5862 5863 5863 5863 5864 5864 5864 5864 5863 5863 5862 5862 5861 5860 5859 5859
5825 5827 5828 5829 5830 5832 5833 5834 5836 5837 5839 5840 5842 5843 5844 5846 5847 5848 5849 5851 5852 5853 5854 5856 5857 5858 5858 5859 5860 5861 5861 5861 5861 5862 5861 5861 5861 5860 5860 5859 5858 5857 5857
5820 5821 5823 5824 5825 5827 5828 5830 5831 5832 5834 5835 5837 5838 5840 5841 5842 5844 5845 5847 5848 5850 5851 5852 5853 5854 5855 5856 5857 5858 5858 5859 5859 5859 5859 5859 5859 5858 5858 5857 5856 5855 5854
5814 5815 5817 5818 5820 5821 5823 5824 5826 5827 5828 5830 5831 5833 5834 5836 5837 5839 5841 5842 5844 5845 5847 5848 5850 5851 5852 5853 5854 5855 5855 5856 5856 5856 5856 5856 5856 5856 5855 5854 5854 5853 5852
5807 5809 5810 5812 5813 5815 5817 5818 5819 5821 5823 5824 5826 5827 5829 5830 5832 5834 5835 5837 5839 5841 5842 5844 5845 5847 5848 5849 5850 5851 5852 5852 5853 5853 5853 5853 5853 5853 5852 5852 5851 5850 5849
5800 5801 5803 5804 5806 5808 5810 5811 5812 5814 5816 5818 5819 5821 5823 5824 5826 5828 5830 5832 5834 5835 5837 5839 5840 5842 5843 5845 5846 5847 5848 5849 5849 5850 5850 5850 5850 5849 5849 5849 5848 5847 5847
5790 5792 5794 5796 5798 5800 5801 5803 5805 5807 5809 5810 5812 5814 5816 5818 5820 5822 5824 5826 5827 5829 5831 5833 5835 5837 5838 5840 5841 5843 5844 5845 5845 5846 5846 5846 5846 5846 5845 5845 5845 5844 5843
5780 5782 5784 5786 5789 5791 5793 5795 5797 5798 5800 5802 5804 5806 5809 5811 5813 5815 5817 5819 5821 5823 5825 5827 5829 5831 5833 5835 5836 5838 5839 5840 5841 5842 5842 5842 5842 5842 5842 5841 5841 5841 5840
5768 5771 5773 5775 5778 5780 5783 5785 5787 5789 5791 5794 5796 5798 5800 5803 5805 5808 5810 5812 5814 5816 5818 5820 5822 5825 5827 5829 5831 5832 5834 5835 5836 5837 5837 5838 5838 5838 5838 5838 5837 5837 5836
5756 5758 5760 5763 5765 5768 5771 5773 5776 5779 5781 5784 5786 5789 5791 5794 5797 5800 5802 5805 5807 5809 5811 5813 5815 5818 5821 5823 5825 5827 5828 5830 5831 5832 5833 5833 5833 5834 5833 5833 5833 5832 5832
5743 5745 5746 5749 5752 5755 5757 5761 5764 5767 5770 5773 5776 5779 5782 5785 5788 5791 5794 5796 5799 5801 5804 5806 5809 5811 5814 5816 5818 5820 5822 5824 5825 5826 5827 5828 5829 5829 5829 5829 5828 5828 5827
5728 5730 5732 5734 5737 5740 5743 5746 5750 5754 5758 5761 5764 5767 5771 5774 5778 5781 5785 5788 5790 5793 5796 5799 5801 5804 5806 5809 5811 5813 5815 5817 5819 5820 5822 5822 5823 5823 5824 5824 5824 5823 5822
5712 5715 5717 5719 5722 5724 5727 5731 5735 5739 5744 5747 5751 5754 5758 5762 5766 5770 5774 5778 5781 5784 5787 5790 5793 5796 5798 5801 5804 5807 5808 5810 5813 5814 5816 5817 5817 5818 5818 5818 5818 5818 5817
5696 5699 5700 5703 5705 5708 5711 5715 5719 5723 5728 5732 5737 5740 5744 5749 5754 5758 5763 5767 5771 5774 5777 5781 5784 5787 5790 5793 5796 5799 5801 5803 5805 5808 5809 5810 5811 5812 5812 5813 5813 5813 5812
5680 5682 5684 5686 5688 5690 5694 5697 5701 5706 5710 5716 5721 5725 5729 5734 5739 5745 5750 5755 5759 5763 5767 5770 5774 5778 5781 5785 5788 5791 5794 5796 5798 5801 5802 5804 5805 5806 5806 5807 5807 5807 5806
5664 5666 5667 5668 5670 5672 5675 5678 5682 5687 5692 5697 5703 5708 5713 5718 5724 5729 5736 5742 5747 5751 5756 5760 5764 5768 5772 5775 5779 5782 5785 5788 5791 5793 5795 5797 5798 5799 5800 5801 5801 5801 5800
5648 5649 5650 5651 5653 5654 5657 5660 5663 5667 5672 5678 5683 5689 5695 5701 5707 5713 5720 5727 5732 5738 5743 5748 5753 5757 5761 5766 5769 5773 5776 5779 5782 5785 5788 5790 5791 5793 5794 5794 5795 5795 5794
5633 5633 5634 5635 5636 5637 5639 5642 5645 5648 5653 5658 5664 5670 5676 5682 5689 5696 5703 5710 5717 5723 5729 5734 5741 5746 5751 5755 5759 5763 5767 5771 5774 5777 5780 5782 5784 5786 5787 5787 5788 5788 5788
5618 5618 5618 5619 5620 5620 5622 5624 5627 5631 5635 5640 5646 5652 5658 5664 5670 5678 5686 5693 5700 5708 5715 5721 5727 5733 5739 5744 5748 5753 5758 5761 5765 5769 5772 5775 5777 5778 5780 5781 5781 5781 5781
5604 5603 5603 5603 5603 5604 5605 5607 5610 5614 5618 5622 5627 5634 5640 5646 5652 5660 5667 5676 5684 5692 5699 5706 5713 5720 5727 5733 5738 5743 5748 5752 5756 5760 5764 5767 5769 5771 5772 5773 5774 5774 5774
5593 5591 5590 5589 5588 5588 5589 5590 5592 5595 5600 5604 5609 5616 5622 5629 5636 5643 5651 5659 5668 5676 5685 5692 5700 5707 5715 5721 5727 5733 5738 5743 5748 5752 5756 5759 5762 5763 5765 5766 5766 5766 5767
5581 5579 5577 5576 5574 5573 5573 5573 5575 5578 5583 5588 5593 5599 5606 5613 5620 5627 5636 5644 5652 5661 5670 5678 5686 5694 5701 5708 5715 5722 5729 5735 5740 5744 5748 5751 5753 5755 5757 5758 5759 5759 5759
5571 5568 5565 5563 5561 5559 5559 5558 5559 5563 5567 5573 5577 5584 5591 5598 5606 5613 5621 5629 5637 5646 5655 5664 5672 5680 5689 5697 5705 5711 5718 5725 5730 5735 5739 5742 5745 5747 5749 5750 5751 5751 5751
5560 5556 5553 5550 5549 5547 5546 5545 5545 5548 5553 5557 5562 5569 5576 5584 5592 5600 5607 5615 5624 5633 5642 5651 5660 5668 5677 5686 5694 5701 5708 5714 5720 5726 5730 5733 5736 5738 5740 5742 5742 5743 5743
Wind_Speed
19 19 19 20 20 20 20 20 20 20 20 20 19 19 18 18 17 16 15 15 14 13 12 11 11 10 10 9 9 9 9 8 8 9 9 9 10 10 11 11 12 12 12
20 20 20 21 21 22 21 21 21 21 21 21 21 21 21 20 20 19 18 17 16 15 14 14 13 13 12 11 11 10 10 10 10 10 10 11 11 11 12 12 13 13 13
22 22 22 22 22 23 24 23 23 23 23 23 23 23 23 23 22 21 20 19 19 18 17 16 15 14 14 13 12 12 11 11 11 11 11 12 12 13 13 14 14 14 14
24 24 24 24 24 24 24 25 25 25 24 24 24 24 24 24 24 24 23 22 21 20 19 19 18 16 15 15 14 14 13 13 13 13 13 13 13 14 14 15 15 14 15
27 27 27 27 27 27 26 26 27 27 27 26 26 26 26 26 25 25 25 24 23 22 22 21 20 18 17 17 16 15 15 14 14 14 14 14 15 15 15 15 15 15 15
30 30 30 30 30 30 29 29 29 29 29 28 29 28 28 28 27 27 26 26 26 25 24 23 21 21 20 19 18 17 17 16 16 16 16 16 16 16 16 16 16 16 16
33 33 32 33 33 33 33 32 32 31 31 30 30 30 30 30 29 29 28 28 27 26 25 24 24 23 22 21 20 19 18 18 18 17 17 17 17 17 17 17 17 17 17
36 36 36 35 35 35 35 36 35 35 34 33 33 32 32 32 31 31 30 30 29 28 27 26 26 25 24 23 23 21 20 20 20 19 19 19 19 18 18 18 18 18 19
40 40 39 39 39 38 38 38 38 38 37 37 36 35 34 34 34 33 32 32 31 30 29 28 28 27 26 25 25 24 23 22 22 21 21 20 20 20 19 19 19 19 20
44 43 43 43 42 42 42 41 41 41 40 40 40 39 38 37 36 35 34 35 34 33 31 30 29 29 28 27 26 26 25 24 23 23 22 22 21 21 20 20 20 20 21
47 47 46 46 46 45 45 45 45 44 44 43 43 42 41 40 39 38 37 36 36 35 34 33 31 30 29 29 28 27 27 26 25 24 24 24 23 22 22 21 21 21 22
50 49 49 49 49 49 49 48 48 47 47 46 46 45 44 43 42 41 40 39 38 37 36 35 34 32 31 31 30 29 28 28 27 26 25 25 24 24 23 22 22 22 22
51 52 52 52 51 51 51 51 51 50 50 49 49 48 47 46 45 43 43 42 41 40 38 37 36 35 34 33 32 31 30 29 28 27 26 26 26 25 24 24 23 23 23
53 53 54 54 54 54 54 54 54 53 53 52 51 51 51 50 48 46 45 44 43 43 41 40 38 37 37 35 34 33 32 31 30 29 28 27 27 27 26 25 24 24 24
54 54 55 56 56 57 57 57 57 56 55 54 55 54 53 52 51 50 48 47 47 46 44 42 41 41 39 37 36 35 34 33 32 30 29 28 28 28 27 26 25 25 25
53 54 55 56 57 58 59 60 60 59 58 58 58 57 56 55 54 53 51 51 49 49 47 45 44 43 42 40 39 38 37 35 33 32 31 30 29 28 28 27 27 27 27
54 54 55 57 58 59 61 62 62 62 61 61 60 60 59 59 58 57 54 54 53 52 50 48 46 45 44 42 41 40 39 37 35 33 32 31 30 29 29 28 28 28 28
53 54 55 56 58 59 61 62 63 63 63 63 63 62 62 62 61 60 57 57 56 54 53 51 49 47 46 44 43 42 40 39 37 35 33 32 31 30 30 29 29 29 29
52 53 53 54 56 58 59 61 62 64 64 64 64 64 64 64 63 63 60 59 59 57 55 54 52 50 48 46 44 43 42 41 38 36 34 33 32 31 31 30 30 30 30
50 51 53 53 54 56 58 59 61 63 64 64 64 64 64 64 64 64 63 62 61 60 58 57 55 51 50 48 46 44 43 42 40 38 36 35 33 32 31 31 30 30 30
48 50 51 52 53 54 56 58 59 60 62 63 63 62 63 63 63 63 64 64 63 62 60 58 57 54 53 51 48 45 44 43 42 40 37 36 34 33 32 31 31 31 31
45 48 49 50 51 52 54 57 59 59 59 60 61 61 61 62 62 63 63 64 63 63 61 60 59 57 55 53 50 47 45 44 43 40 39 37 35 33 33 33 32 32 32
42 45 47 48 50 51 52 55 57 57 56 57 58 59 60 60 61 61 60 62 63 63 62 61 60 58 56 53 51 48 45 44 42 41 40 38 35 34 34 34 33 33 33
39 42 45 46 48 49 50 52 53 54 53 53 55 57 57 58 59 60 60 60 61 62 61 59 60 60 58 55 52 49 46 44 43 42 41 39 36 35 34 34 34 34 34
38 40 42 43 44 45 46 48 50 51 51 50 52 54 56 57 57 57 58 59 59 60 59 58 59 59 57 56 53 50 47 45 44 43 42 40 38 36 35 35 34 34 36
37 38 40 40 41 42 43 44 46 49 50 49 50 53 55 56 56 56 57 58 58 58 58 58 59 58 57 55 54 52 48 45 44 44 42 40 39 38 37 36 35 35 36
Wind_Direction
253 252 251 250 250 250 249 247 244 242 241 240 240 240 241 243 245 245 246 249 252 256 255 257 259 263 268 275 285 290 291 297 301 304 306 311 316 320 324 324 321 321 325
254 254 253 252 251 250 250 249 247 246 245 244 243 244 244 245 247 249 249 250 252 254 256 257 257 261 265 270 278 283 286 289 294 298 302 305 308 313 316 317 317 317 321
255 254 254 254 253 252 250 249 249 248 247 247 246 246 246 248 249 250 252 252 253 253 255 258 259 260 263 267 272 276 280 282 287 292 296 300 303 307 310 313 314 314 316
256 256 255 255 255 254 253 251 250 249 249 249 248 248 248 248 249 251 252 254 254 254 255 257 258 259 261 264 267 271 276 279 282 286 291 296 299 302 306 309 311 311 312
256 256 256 255 255 255 254 253 251 250 250 250 249 249 249 249 249 250 252 254 256 255 255 256 256 258 260 262 265 268 272 276 278 283 287 291 295 298 301 305 307 308 310
257 256 256 255 255 255 256 254 253 252 251 251 251 250 250 250 250 251 252 254 256 256 256 256 256 257 258 260 264 266 269 272 275 279 284 287 291 294 297 301 304 306 308
259 257 256 255 255 255 255 255 254 253 253 252 252 251 251 251 251 252 252 253 255 256 256 257 256 256 257 259 262 265 267 270 273 276 280 284 288 290 293 296 299 303 305
260 259 257 256 255 254 254 254 253 253 253 253 253 252 251 252 252 252 253 254 255 255 256 256 255 256 256 257 259 262 265 269 272 274 277 281 285 287 289 292 295 299 302
261 260 259 257 255 253 253 253 253 253 253 253 253 253 253 252 252 252 253 254 254 255 255 255 255 255 255 256 257 260 262 266 270 272 275 278 282 285 287 289 292 295 299
262 260 259 258 256 254 253 252 252 252 252 252 253 253 253 253 252 252 252 253 254 254 254 254 255 254 254 255 256 258 260 263 268 270 273 275 279 282 285 287 289 292 296
262 261 260 259 258 256 254 252 251 251 252 252 252 252 253 253 253 252 252 252 253 253 253 253 253 254 253 254 255 257 259 261 264 268 271 273 276 280 283 285 287 291 294
262 261 260 259 258 257 255 253 251 250 250 251 251 251 251 252 252 253 252 251 252 252 252 252 252 252 253 254 255 256 258 260 262 266 269 272 274 278 281 284 286 289 292
262 261 260 260 259 257 256 254 252 250 249 250 250 250 251 250 250 251 252 251 251 250 251 252 251 250 252 253 253 255 257 259 261 263 266 269 272 275 279 282 285 287 290
262 261 260 259 258 257 256 254 252 251 250 249 250 250 250 250 250 250 250 251 251 250 250 251 250 250 250 251 253 254 256 257 260 261 262 266 270 273 277 280 283 286 288
262 260 259 258 257 256 255 254 252 251 250 249 249 249 249 249 249 249 249 249 249 249 249 250 250 250 249 249 251 253 255 256 258 260 261 264 267 271 274 278 281 284 286
262 260 259 258 256 255 254 253 252 250 248 248 248 247 247 247 247 247 247 247 247 248 249 249 249 249 248 248 249 252 254 254 257 258 259 262 266 269 272 276 280 282 284
263 262 260 259 257 256 255 253 251 249 248 247 247 247 247 247 246 245 245 246 246 247 248 247 248 248 247 248 250 251 252 253 255 257 259 260 264 267 270 274 277 281 284
264 263 261 260 259 258 256 254 252 249 248 247 246 246 246 246 245 244 244 244 245 245 246 246 246 247 246 247 249 250 251 252 253 255 257 259 263 265 269 272 276 280 283
266 264 262 261 260 259 257 255 253 249 248 247 246 245 244 244 245 244 242 243 243 243 245 245 245 245 245 245 246 249 249 251 251 252 255 258 261 265 267 271 275 278 282
267 265 264 263 262 260 258 256 254 251 248 246 245 245 244 244 244 244 242 241 241 241 243 244 243 243 243 244 245 246 248 249 249 250 253 256 260 264 266 270 274 277 281
270 266 265 263 263 262 260 257 255 252 249 247 246 244 244 243 243 243 242 240 239 240 240 242 241 240 241 242 242 243 246 247 246 248 252 254 257 262 266 269 272 276 280
274 269 267 264 264 264 262 258 255 253 250 248 245 243 243 242 241 240 240 239 238 237 238 239 240 239 240 240 240 241 243 244 245 247 250 254 257 260 265 268 271 274 278
277 274 271 267 266 265 263 259 255 252 249 247 244 242 240 240 239 238 238 237 235 235 236 236 237 236 238 238 238 240 242 243 245 248 250 252 256 259 263 267 271 273 277
280 279 275 271 270 267 264 260 256 252 248 245 243 240 238 237 237 236 235 235 234 234 233 234 235 234 234 235 236 238 239 243 245 247 248 251 254 259 262 266 270 272 276
285 283 280 276 272 268 266 263 256 251 246 244 241 238 237 236 236 235 234 234 233 231 231 231 232 232 232 233 235 237 238 241 244 245 246 249 252 257 262 266 270 273 277
288 287 285 280 276 272 268 264 257 250 245 243 240 237 236 234 234 235 233 232 231 230 229 229 231 230 231 232 233 234 236 239 243 245 246 248 253 256 259 265 269 273 276